TimeCST,TemperatureF,Dew PointF,Humidity,Sea Level PressureIn,VisibilityMPH,Wind Direction,Wind SpeedMPH,Gust SpeedMPH,PrecipitationIn,Events,Conditions,WindDirDegrees,DateUTC
12:15 AM,49.3,27.5,43,30.30,10.0,Calm,Calm,-,N/A,,Clear,0,2013-03-03 06:15:00
12:35 AM,45.7,24.1,43,30.30,10.0,Calm,Calm,-,N/A,,Clear,0,2013-03-03 06:35:00
12:55 AM,41.9,18.5,39,30.30,10.0,SSW,5.8,-,N/A,,Clear,210,2013-03-03 06:55:00
1:15 AM,43.9,22.3,42,30.30,10.0,Calm,Calm,-,N/A,,Clear,0,2013-03-03 07:15:00
1:35 AM,43.2,22.6,44,30.30,10.0,Calm,Calm,-,N/A,,Clear,0,2013-03-03 07:35:00
1:55 AM,43.9,23.7,45,30.30,10.0,West,3.5,-,N/A,,Clear,260,2013-03-03 07:55:00
2:15 AM,41.2,19.4,42,30.30,10.0,West,4.6,-,N/A,,Clear,260,2013-03-03 08:15:00
2:35 AM,41.5,21.9,46,30.29,10.0,West,5.8,-,N/A,,Clear,260,2013-03-03 08:35:00
3:15 AM,40.3,20.8,46,30.27,10.0,West,3.5,-,N/A,,Clear,260,2013-03-03 09:15:00
3:35 AM,42.6,25.5,51,30.27,10.0,WSW,4.6,-,N/A,,Clear,250,2013-03-03 09:35:00
3:55 AM,41.5,24.1,50,30.27,10.0,WSW,5.8,-,N/A,,Clear,250,2013-03-03 09:55:00
4:35 AM,40.5,23.2,50,30.27,10.0,West,3.5,-,N/A,,Clear,260,2013-03-03 10:35:00
4:55 AM,41.9,25.7,53,30.26,10.0,WSW,3.5,-,N/A,,Clear,240,2013-03-03 10:55:00
5:15 AM,40.8,25.2,54,30.25,10.0,WSW,4.6,-,N/A,,Clear,240,2013-03-03 11:15:00
5:35 AM,40.6,26.4,57,30.26,10.0,WSW,4.6,-,N/A,,Clear,240,2013-03-03 11:35:00
5:55 AM,40.3,25.3,55,30.27,10.0,WSW,3.5,-,N/A,,Clear,250,2013-03-03 11:55:00
6:15 AM,40.1,25.5,56,30.27,10.0,WSW,4.6,-,N/A,,Clear,240,2013-03-03 12:15:00
6:35 AM,40.1,26.8,59,30.26,10.0,SW,5.8,-,N/A,,Clear,220,2013-03-03 12:35:00
6:55 AM,39.4,26.1,59,30.26,10.0,SW,4.6,-,N/A,,Clear,220,2013-03-03 12:55:00
7:15 AM,41.0,27.1,58,30.27,10.0,SSW,5.8,-,N/A,,Clear,210,2013-03-03 13:15:00
7:35 AM,42.8,28.8,58,30.27,10.0,SSW,4.6,-,N/A,,Clear,210,2013-03-03 13:35:00
7:55 AM,46.6,32.0,57,30.28,10.0,SW,5.8,-,N/A,,Clear,220,2013-03-03 13:55:00
8:15 AM,50.0,34.0,54,30.28,10.0,SW,5.8,-,N/A,,Clear,220,2013-03-03 14:15:00
8:35 AM,54.5,36.5,51,30.29,10.0,SSW,6.9,-,N/A,,Clear,210,2013-03-03 14:35:00
8:55 AM,57.6,38.3,49,30.29,10.0,SSW,8.1,-,N/A,,Clear,210,2013-03-03 14:55:00
9:15 AM,61.0,39.2,45,30.29,10.0,SSW,12.7,-,N/A,,Clear,200,2013-03-03 15:15:00
9:35 AM,63.9,40.1,42,30.28,10.0,South,15.0,18.4,N/A,,Clear,190,2013-03-03 15:35:00
9:55 AM,65.3,39.7,39,30.27,10.0,South,15.0,-,N/A,,Clear,180,2013-03-03 15:55:00
10:15 AM,67.1,38.5,35,30.27,10.0,South,18.4,-,N/A,,Clear,190,2013-03-03 16:15:00
10:35 AM,68.9,37.9,32,30.26,10.0,South,18.4,25.3,N/A,,Clear,170,2013-03-03 16:35:00
10:55 AM,69.8,36.9,30,30.25,10.0,South,16.1,20.7,N/A,,Clear,190,2013-03-03 16:55:00
11:15 AM,70.7,36.7,29,30.24,10.0,South,13.8,21.9,N/A,,Clear,190,2013-03-03 17:15:00
11:35 AM,72.7,35.6,26,30.23,10.0,South,16.1,21.9,N/A,,Clear,190,2013-03-03 17:35:00
11:55 AM,73.4,35.1,25,30.22,10.0,South,12.7,20.7,N/A,,Clear,170,2013-03-03 17:55:00
12:15 PM,75.0,33.6,22,30.20,10.0,South,13.8,20.7,N/A,,Clear,180,2013-03-03 18:15:00
12:35 PM,75.2,32.9,21,30.18,10.0,South,12.7,21.9,N/A,,Clear,170,2013-03-03 18:35:00
12:55 PM,76.5,32.0,20,30.17,10.0,South,15.0,20.7,N/A,,Clear,180,2013-03-03 18:55:00
1:15 PM,77.2,32.0,19,30.15,10.0,South,15.0,21.9,N/A,,Clear,170,2013-03-03 19:15:00
1:35 PM,77.9,31.8,19,30.13,10.0,SSE,16.1,21.9,N/A,,Clear,150,2013-03-03 19:35:00
1:55 PM,78.4,30.9,18,30.12,10.0,South,11.5,23.0,N/A,,Clear,190,2013-03-03 19:55:00
2:15 PM,78.8,36.5,22,30.11,10.0,SSE,12.7,25.3,N/A,,Clear,150,2013-03-03 20:15:00
2:35 PM,78.1,36.9,23,30.10,10.0,SSE,16.1,21.9,N/A,,Clear,160,2013-03-03 20:35:00
2:55 PM,78.1,38.1,24,30.09,10.0,SE,20.7,26.5,N/A,,Clear,130,2013-03-03 20:55:00
3:15 PM,78.4,39.4,25,30.08,10.0,SSE,17.3,25.3,N/A,,Clear,150,2013-03-03 21:15:00
3:55 PM,76.8,41.5,28,30.07,10.0,SSE,17.3,28.8,N/A,,Clear,160,2013-03-03 21:55:00
4:15 PM,76.8,41.9,29,30.06,10.0,SE,19.6,27.6,N/A,,Clear,140,2013-03-03 22:15:00
4:35 PM,75.4,42.6,31,30.06,10.0,SE,23.0,31.1,N/A,,Clear,140,2013-03-03 22:35:00
4:55 PM,74.5,41.9,31,30.05,10.0,SE,21.9,28.8,N/A,,Clear,140,2013-03-03 22:55:00
5:15 PM,72.0,42.1,34,30.05,10.0,SSE,24.2,28.8,N/A,,Clear,150,2013-03-03 23:15:00
5:35 PM,71.2,42.8,36,30.05,10.0,SE,23.0,27.6,N/A,,Clear,140,2013-03-03 23:35:00
5:55 PM,70.2,42.1,36,30.05,10.0,SSE,20.7,27.6,N/A,,Clear,150,2013-03-03 23:55:00
6:35 PM,67.1,44.1,43,30.05,10.0,SSE,21.9,28.8,N/A,,Clear,150,2013-03-04 00:35:00
6:55 PM,66.0,45.7,48,30.05,10.0,SSE,18.4,26.5,N/A,,Clear,150,2013-03-04 00:55:00
7:15 PM,64.9,47.1,52,30.05,10.0,SSE,19.6,25.3,N/A,,Clear,150,2013-03-04 01:15:00
7:35 PM,64.4,47.8,55,30.05,10.0,SSE,19.6,-,N/A,,Clear,150,2013-03-04 01:35:00
7:55 PM,64.4,48.4,56,30.05,10.0,SSE,19.6,25.3,N/A,,Clear,150,2013-03-04 01:55:00
8:15 PM,64.2,49.1,58,30.05,10.0,SSE,20.7,-,N/A,,Clear,160,2013-03-04 02:15:00
8:35 PM,63.9,50.0,61,30.05,10.0,SSE,21.9,26.5,N/A,,Clear,160,2013-03-04 02:35:00
8:55 PM,63.7,50.4,62,30.05,10.0,SSE,19.6,-,N/A,,Clear,160,2013-03-04 02:55:00
9:15 PM,63.5,50.7,63,30.06,10.0,SSE,19.6,25.3,N/A,,Clear,160,2013-03-04 03:15:00
9:35 PM,63.3,50.9,64,30.05,10.0,SSE,19.6,-,N/A,,Clear,160,2013-03-04 03:35:00
9:55 PM,63.0,50.9,65,30.05,10.0,South,19.6,24.2,N/A,,Clear,170,2013-03-04 03:55:00
10:15 PM,62.6,50.9,66,30.05,10.0,South,16.1,-,N/A,,Clear,170,2013-03-04 04:15:00
10:35 PM,62.2,51.1,67,30.04,10.0,South,18.4,-,N/A,,Clear,170,2013-03-04 04:35:00
10:55 PM,61.7,51.1,68,30.03,10.0,South,17.3,-,N/A,,Clear,170,2013-03-04 04:55:00
11:15 PM,61.3,51.1,69,30.03,10.0,South,15.0,-,N/A,,Clear,170,2013-03-04 05:15:00
11:35 PM,61.2,51.1,69,30.02,10.0,South,13.8,20.7,N/A,,Clear,170,2013-03-04 05:35:00